Вернуться в каталог

STARLINK-30933

АктивенСвязьVLEO
NORAD 58410·PAYLOAD·🇺🇸 United States

Запущен Nov 22, 2023 с Cape Canaveral Space Force Station

Loading…

Ближайшие Пролёты (ближайшие 24 часа)

TLE

СвежийSource: CelesTrak SupGP

Эпоха: Sep 14, 2026, 21:38 UTC

1 58410C 23180J   26257.90187500  .00015281  00000+0  55357-3 0  2575
2 58410  42.9998 278.1767 0001483 266.4082 226.8640 15.27564421    19

Отслеживайте STARLINK-30933 в реальном времени с AllMySat

Download on the App Store